User: anonymous   Login
Location: Mercogliano
(40.9167°N, 14.7333°E)
Time: 07:27:14
(UTC+00:00)
Language:

Meteor 2-9 Rocket - Orbit

View from above orbital plane
View from above orbital plane
View from above satellite
View from above satellite

Ground track
Ground track

The orbit data is extracted from the following two-line orbital elements,

1 13719U 82116B   20336.93539889  .00000072  00000-0  30113-4 0  9998
2 13719  81.2552 202.3224 0071444 348.6364  21.6251 14.14663138959046
Epoch (UTC): 01 December 2020 22:26:58
Eccentricity: 0.0071444
inclination: 81.2552°
perigee height: 792 km
apogee height: 895 km
right ascension of ascending node: 202.3224°
argument of perigee: 348.6364°
revolutions per day: 14.14663138
mean anomaly at epoch: 21.6251°
orbit number at epoch: 95904

The dashed part of the orbit path shows where the satellite is in the earth's shadow,  

DLR